Skip Page Navigation
NASA JPL Caltech
NASA Logo - Jet Propulsion Laboratory + View the NASA Portal
+ Center for Near-Earth Object Studies
JPL Home Earth Solar System Stars & Galaxies Technology
JPL Solar System Dynamics
BODIES ORBITS EPHEMERIDES TOOLS PHYSICAL DATA DISCOVERY FAQ SITE MAP

Significant website upgrade scheduled for September 27. More details available here.

JPL Small-Body Database Browser
Search: [ help ]  
392468 (2011 CF70)
Classification: Main-belt Asteroid          SPK-ID: 2392468
Ephemeris | Orbit Diagram | Orbital Elements | Mission Design | Physical Parameters | Discovery Circumstances ]

[ show orbit diagram ]
Orbital Elements at Epoch 2459396.5 (2021-Jul-01.0) TDB
Reference: JPL 24 (heliocentric ecliptic J2000)
 Element Value Uncertainty (1-sigma)   Units 
e .07366696808316865 7.2367e-08  
a 2.392566828540443 1.914e-08 au
q 2.216313684345506 1.6774e-07 au
i 6.386387116452276 5.6202e-06 deg
node 44.38474373430145 5.2102e-05 deg
peri 110.3347209231394 6.5205e-05 deg
M 271.7827555431199 4.3771e-05 deg
tp 2459727.742100536945
(2022-May-28.24210054)
0.00016697 TDB
period 1351.744286816706
3.70
1.6221e-05
4.441e-08
d
yr
n .2663225607912744 3.1959e-09 deg/d
Q 2.568819972735381 2.0551e-08 au
  Orbit Determination Parameters
   # obs. used (total)      295  
   data-arc span      8123 days (22.24 yr)  
   first obs. used      1998-09-19  
   last obs. used      2020-12-15  
   planetary ephem.      DE441  
   SB-pert. ephem.      SB441-N16  
   condition code      0  
   norm. resid. RMS      .59168  
   source      ORB  
   producer      Otto Matic  
   solution date      2021-Jul-09 12:06:54  

Additional Information
 Earth MOID = 1.23548 au 
 Jupiter MOID = 2.41675 au 
 T_jup = 3.519 
[ hide covariance matrix ]
Orbital Elements at Epoch 2458124.5 (2018-Jan-06.0) TDB
Reference: JPL 24 (heliocentric ecliptic J2000)
 Element Value Uncertainty (1-sigma)   Units 
e .07233635896702274 7.1994e-08  
q 2.220204804727315 1.6649e-07 au
tp 2458373.791929399102
(2018-Sep-12.29192940)
0.00016106 TDB
node 44.45053779257773 5.2027e-05 deg
peri 109.8299641980107 6.5874e-05 deg
i 6.390566409675413 5.6221e-06 deg
  Orbit Determination Parameters
   # obs. used (total)      295  
   data-arc span      8123 days (22.24 yr)  
   first obs. used      1998-09-19  
   last obs. used      2020-12-15  
   planetary ephem.      DE441  
   SB-pert. ephem.      SB441-N16  
   condition code      0  
   norm. resid. RMS      .59168  
   source      ORB  
   producer      Otto Matic  
   solution date      2021-Jul-09 12:06:54  

Additional Information
 Jupiter MOID = 2.41675 au 
 T_jup = 3.519 
Orbit Covariance (6×6)
  e q tp node peri i
e 5.18314029224294E-15 -1.192568239004809E-14 7.671792473456942E-12 -4.007411048125396E-15 1.908757049531964E-12 5.710748633935741E-15
q -1.192568239004809E-14 2.771923779600094E-14 -1.658157496802451E-11 1.01171721476197E-14 -4.130549232802254E-12 -1.270096498321424E-14
tp 7.671792473456942E-12 -1.658157496802451E-11 2.59392131309018E-8 8.00947434113728E-12 6.552262377559984E-9 7.829178006937141E-12
node -4.007411048125396E-15 1.01171721476197E-14 8.00947434113728E-12 2.706825762018673E-9 -2.687530437601699E-9 -1.789911429590045E-10
peri 1.908757049531964E-12 -4.130549232802254E-12 6.552262377559984E-9 -2.687530437601699E-9 4.339384158605579E-9 1.798143894678201E-10
i 5.710748633935741E-15 -1.270096498321424E-14 7.829178006937141E-12 -1.789911429590045E-10 1.798143894678201E-10 3.160769665880294E-11

Ephemeris | Orbit Diagram | Orbital Elements | Mission Design | Physical Parameters | Discovery Circumstances ]

Physical Parameter Table
Parameter Symbol Value Units Sigma Reference Notes
absolute magnitude H 16.97   n/a MPCxxxxx  

392468 (2011 CF70)          Discovered 2011-Feb-05 by CSS at Catalina
Reference: Last Updated: 2014-04-17
Ephemeris | Orbit Diagram | Orbital Elements | Mission Design | Physical Parameters | Discovery Circumstances ]
ABOUT SSD CREDITS/AWARDS PRIVACY/COPYRIGHT GLOSSARY LINKS
FirstGov 2021-Sep-24 20:43 UT
(server date/time)  
NASA Home Page
Site Manager:   Ryan S. Park
Webmaster  Alan B. Chamberlin